MESON-1

operational
NORAD ID: 59131 Int'l Des: 2024-043 Owner: ATOMOS Country: US
LEOCIRCULARRETROGRADESSO

About MESON-1

Description loading...

Live Position

Loading 3D Globe...

Upcoming Passes

Altitude History

Altitude vs Time

uPlot chart will show altitude changes over time

Two-Line Element Set

1 59131U 24043AK 26102.31688549 .00004785 00000-0 16502-3 0 9998
2 59131 97.5534 239.2511 0011635 112.0449 248.2028 15.30429248117007
Epoch: Apr 12, 2026 • Age: 10 hours

Current Status

Altitude 478.6 km
Velocity 7.63 km/s
Sub-Earth Point 50.18°N, 131.03°E
Launch Date Mar 4, 2024
Age 2.1 years
Type other

Technical Details

Classification Payload
Mass 100.00 kg
Dry Mass 100.00 kg
Total Mass 100.00 kg
Length 0.50 m
Diameter 1.00 m
Span 1.00 m
Shape Box + 2 pan
Manufacturer ATOMOS
Bus Type Atomos
Phase Status In Orbit
Owner/State ATOMOS/US

Large Constellations

Loading constellations...